Regional Weather Roundup
Issued by NWS Kansas City/Pleasant Hill, MO

Home | Current Version | Previous Version | Graphics & Text | Print | Product List | Glossary Off
Versions: 1 2 3 4 5 6 7 8 9 10 11 12 13 14 15 16 17 18 19 20 21 22 23 24 25 26 27 28 29 30 31 32 33 34 35 36 37 38 39 40 41 42 43 44 45 46 47 48 49 50

000
ASUS43 KEAX 192304
RWREAX

WEATHER ROUNDUP FOR EASTERN KANSAS AND NORTHWEST MISSOURI
NATIONAL WEATHER SERVICE KANSAS CITY/PLEASANT HILL MO
600 PM CDT SAT APR 19 2014

KSZ040-057-103>105-MOZ028-029-037-043-200000-
...KANSAS CITY METROPOLITAN AREA...

CITY           SKY/WX    TMP DP  RH WIND       PRES   REMARKS
K.C. INTL      PTSUNNY   75  43  31 S17G28    30.06S
K.C. DOWNTOWN  MOSUNNY   75  44  33 S17G24    30.06R
LEES SUMMIT    MOSUNNY   73  43  33 S15G23    30.08F
OLATHE - IXD   PTSUNNY   73  45  36 S14       30.08S
OLATHE - OJC   MOSUNNY   72  44  36 S16G22    30.07S
LAWRENCE       PTSUNNY   76  46  34 S15G24    30.05S

$$

MOZ001>008-011>017-020>025-030>033-038>040-044>046-053-054-200000-
...NORTHERN AND CENTRAL MISSOURI...

CITY           SKY/WX    TMP DP  RH WIND       PRES   REMARKS
ST. JOSEPH     MOSUNNY   76  44  32 S21G28    30.04R
MOSBY          FAIR      73  45  35 S13G18    30.07S
WHITEMAN AFB   SUNNY     74  44  33 S15       30.09S
CLINTON        SUNNY     75  46  35 S13       30.10S
SEDALIA        MOSUNNY   76  45  33 S12       30.10F
WARSAW         NOT AVBL
MARSHALL         N/A     79  46  31 S12       30.10S
CHILLICOTHE      N/A     76  43  30 S16G26    30.07F
MOBERLY        SUNNY     77  39  25 SE10      30.12F
KIRKSVILLE     SUNNY     76  40  27 S15       30.10F

$$

MOZ041-047>049-056>058-063>065-088>090-097-200000-
...EASTERN AND SOUTHERN MISSOURI...

CITY           SKY/WX    TMP DP  RH WIND       PRES   REMARKS
ST. LOUIS INTL PTSUNNY   74  40  29 SE10G17   30.17F
SPIRIT OF STL  PTSUNNY   73  40  30 SE6       30.15F
COLUMBIA       SUNNY     74  39  28 S12       30.11F
JEFFERSON CITY SUNNY     77  37  23 SE7       30.10F
MEXICO         SUNNY     73  45  35 SE7       30.12F
HANNIBAL       MOSUNNY   77  30  18 S8        30.14S
ROLLA          SUNNY     75  40  28 S8        30.11F
LEBANON        MOSUNNY   75  36  23 S8        30.14S
OSAGE BEACH    SUNNY     77  37  24 S7        30.12F
SPRINGFIELD    MOSUNNY   75  44  33 S9        30.13R
NEVADA         SUNNY     75  45  33 SE12      30.11S
JOPLIN         SUNNY     75  45  34 MISG      30.10S
WEST PLAINS    SUNNY     74  39  28 SE8       30.16S

$$

IAZ060-094-KSZ022-034>040-054-083-096-NEZ052-066-093-200000-
...KANSAS...SOUTHEAST NEBRASKA AND IOWA...

CITY           SKY/WX    TMP DP  RH WIND       PRES   REMARKS
TOPEKA         PTSUNNY   77  45  32 S18G26    30.03F
MANHATTAN      MOSUNNY   80  46  30 S18G29    29.98S
EMPORIA        PTSUNNY   75  45  34 S20G30    30.02S
CHANUTE        MOSUNNY   74  43  32 S18       30.07F
WICHITA        PTSUNNY   79  48  33 S25G33    30.00S
OMAHA          PTSUNNY   78  44  29 S15       29.95F
LINCOLN        CLOUDY    79  48  33 S16       29.95S
LAMONI         MOSUNNY   75  43  31 S20G28    30.05R
DES MOINES     PTSUNNY   76  43  30 S18       30.04S

$$




USA.gov is the U.S. government's official web portal to all federal, state and local government web resources and services.